�������l�o���
Date,Time,MP-1(��Sv/h),MP-2(��Sv/h),MP-3(��Sv/h),MP-4(��Sv/h),MP-5(��Sv/h),MP-6(��Sv/h),MP-7(��Sv/h),MP-8(��Sv/h),����,����(m/s),���J
2018/12/18,00:00,0.775,1.161,0.811,1.476,1.043,0.451,0.796,0.755,���k��,7.5,��
2018/12/18,00:10,0.773,1.159,0.812,1.473,1.045,0.451,0.794,0.756,���k��,7.5,��
2018/12/18,00:20,0.775,1.162,0.813,1.471,1.045,0.451,0.796,0.754,���k��,7.3,��
2018/12/18,00:30,0.775,1.162,0.814,1.476,1.044,0.451,0.795,0.755,���k��,7.6,��
2018/12/18,00:40,0.774,1.161,0.811,1.476,1.044,0.450,0.796,0.757,��,8.3,��
2018/12/18,00:50,0.776,1.160,0.811,1.474,1.044,0.452,0.798,0.756,���k��,9.0,��
2018/12/18,01:00,0.776,1.165,0.812,1.473,1.045,0.451,0.796,0.756,���k��,8.8,��
2018/12/18,01:10,0.775,1.163,0.812,1.475,1.044,0.452,0.797,0.755,���k��,8.2,��
2018/12/18,01:20,0.778,1.163,0.812,1.475,1.045,0.451,0.797,0.756,���k��,8.7,��
2018/12/18,01:30,0.774,1.163,0.813,1.475,1.044,0.452,0.796,0.755,���k��,8.9,��
2018/12/18,01:40,0.774,1.162,0.813,1.477,1.047,0.451,0.797,0.757,���k��,6.8,��
2018/12/18,01:50,0.775,1.162,0.811,1.471,1.045,0.452,0.796,0.756,���k��,5.5,��
2018/12/18,02:00,0.776,1.159,0.813,1.476,1.043,0.452,0.799,0.755,�k��,5.6,��
2018/12/18,02:10,0.774,1.162,0.813,1.473,1.045,0.452,0.797,0.754,�k��,5.0,��
2018/12/18,02:20,0.776,1.159,0.812,1.477,1.045,0.452,0.800,0.756,�k��,5.6,��
2018/12/18,02:30,0.775,1.161,0.812,1.476,1.047,0.452,0.795,0.755,�k��,5.8,��
2018/12/18,02:40,0.776,1.162,0.811,1.472,1.044,0.450,0.798,0.755,�k��,5.1,��
2018/12/18,02:50,0.773,1.162,0.811,1.476,1.044,0.453,0.796,0.756,�k�k��,4.8,��
2018/12/18,03:00,0.774,1.160,0.812,1.474,1.045,0.452,0.797,0.753,���k��,3.8,��
2018/12/18,03:10,0.774,1.160,0.812,1.474,1.044,0.451,0.797,0.756,���k��,5.7,��
2018/12/18,03:20,0.775,1.161,0.812,1.472,1.045,0.451,0.797,0.755,���k��,6.0,��
2018/12/18,03:30,0.772,1.160,0.813,1.473,1.044,0.452,0.798,0.754,���k��,3.2,��
2018/12/18,03:40,0.775,1.161,0.810,1.473,1.043,0.451,0.797,0.755,�k��,4.5,��
2018/12/18,03:50,0.775,1.161,0.812,1.474,1.043,0.451,0.798,0.756,���k��,3.7,��
2018/12/18,04:00,0.772,1.161,0.810,1.471,1.044,0.453,0.795,0.755,�k��,4.0,��
2018/12/18,04:10,0.775,1.161,0.812,1.474,1.043,0.452,0.796,0.756,�k��,4.2,��
2018/12/18,04:20,0.773,1.160,0.811,1.473,1.043,0.450,0.795,0.753,���k��,7.7,��
2018/12/18,04:30,0.773,1.160,0.810,1.472,1.046,0.451,0.797,0.753,�k��,9.3,��
2018/12/18,04:40,0.774,1.162,0.811,1.472,1.045,0.451,0.796,0.754,�k��,7.8,��
2018/12/18,04:50,0.773,1.165,0.811,1.473,1.046,0.450,0.799,0.756,�k��,7.6,��
2018/12/18,05:00,0.773,1.162,0.810,1.474,1.044,0.450,0.799,0.755,�k��,8.6,��
2018/12/18,05:10,0.774,1.161,0.812,1.473,1.045,0.451,0.795,0.755,�k��,8.2,��
2018/12/18,05:20,0.773,1.160,0.812,1.475,1.045,0.450,0.798,0.755,�k��,10.2,��
2018/12/18,05:30,0.774,1.160,0.810,1.471,1.044,0.451,0.797,0.755,�k��,8.8,��
2018/12/18,05:40,0.774,1.160,0.810,1.474,1.045,0.451,0.796,0.757,�k��,8.6,��
2018/12/18,05:50,0.773,1.162,0.812,1.476,1.045,0.451,0.797,0.753,�k��,7.3,��
2018/12/18,06:00,0.774,1.162,0.810,1.475,1.044,0.449,0.797,0.754,�k��,7.2,��
2018/12/18,06:10,0.775,1.161,0.811,1.472,1.043,0.451,0.797,0.754,�k��,8.0,��
2018/12/18,06:20,0.773,1.161,0.812,1.471,1.044,0.452,0.798,0.754,�k��,8.6,��
2018/12/18,06:30,0.772,1.159,0.812,1.475,1.045,0.452,0.798,0.755,�k��,8.4,��
2018/12/18,06:40,0.773,1.161,0.814,1.475,1.043,0.450,0.797,0.755,�k��,7.6,��
2018/12/18,06:50,0.772,1.161,0.811,1.474,1.044,0.451,0.798,0.754,�k��,10.5,��
2018/12/18,07:00,0.771,1.162,0.812,1.473,1.046,0.450,0.798,0.753,�k��,9.3,��
2018/12/18,07:10,0.775,1.161,0.810,1.475,1.043,0.451,0.798,0.756,�k��,9.1,��
2018/12/18,07:20,0.775,1.159,0.811,1.474,1.042,0.450,0.796,0.755,�k��,8.0,��
2018/12/18,07:30,0.774,1.160,0.812,1.473,1.044,0.450,0.797,0.756,�k��,10.2,��
2018/12/18,07:40,0.774,1.164,0.810,1.472,1.045,0.450,0.797,0.756,�k��,12.0,��
2018/12/18,07:50,0.775,1.161,0.811,1.471,1.045,0.449,0.798,0.755,�k��,10.0,��
2018/12/18,08:00,0.772,1.157,0.811,1.474,1.044,0.451,0.798,0.753,�k��,10.5,��
2018/12/18,08:10,0.773,1.161,0.810,1.471,1.045,0.450,0.794,0.754,�k��,10.0,��
2018/12/18,08:20,0.774,1.161,0.811,1.475,1.045,0.449,0.797,0.755,�k��,9.6,��
2018/12/18,08:30,0.774,1.160,0.811,1.474,1.045,0.450,0.797,0.755,�k��,9.3,��
2018/12/18,08:40,0.773,1.158,0.810,1.471,1.045,0.449,0.797,0.755,�k��,10.6,��
2018/12/18,08:50,0.773,1.158,0.810,1.475,1.043,0.451,0.797,0.755,���k��,9.1,��
2018/12/18,09:00,0.775,1.159,0.809,1.474,1.044,0.451,0.796,0.754,���k��,8.2,��
2018/12/18,09:10,0.774,1.156,0.810,1.474,1.042,0.450,0.796,0.755,��,7.0,��
2018/12/18,09:20,0.774,1.160,0.812,1.477,1.046,0.450,0.798,0.754,���k��,5.6,��
2018/12/18,09:30,0.775,1.160,0.810,1.474,1.044,0.450,0.795,0.755,�k��,6.7,��
2018/12/18,09:40,0.777,1.155,0.810,1.475,1.044,0.450,0.796,0.756,�k�k��,5.9,��
2018/12/18,09:50,0.775,1.157,0.810,1.474,1.047,0.451,0.794,0.757,�k�k��,5.3,��
2018/12/18,10:00,0.776,1.156,0.812,1.474,1.042,0.452,0.795,0.755,�k�k��,5.0,��
2018/12/18,10:10,0.774,1.158,0.809,1.474,1.046,0.452,0.794,0.756,�k��,6.0,��
2018/12/18,10:20,0.777,1.155,0.813,1.475,1.045,0.450,0.793,0.756,�k�k��,6.9,��
2018/12/18,10:30,0.776,1.158,0.810,1.474,1.046,0.451,0.793,0.756,�k�k��,5.8,��
2018/12/18,10:40,0.774,1.157,0.812,1.477,1.048,0.451,0.795,0.757,�k�k��,7.2,��
2018/12/18,10:50,0.774,1.157,0.810,1.476,1.046,0.451,0.794,0.755,�k�k��,6.4,��
2018/12/18,11:00,0.776,1.155,0.810,1.477,1.046,0.450,0.794,0.754,�k�k��,4.6,��
2018/12/18,11:10,0.776,1.156,-,1.474,1.049,0.449,0.792,0.755,�k�k��,5.3,��
2018/12/18,11:20,0.775,1.156,-,1.476,1.046,0.452,0.795,0.758,�k��,4.2,��
2018/12/18,11:30,0.776,1.159,-,1.475,1.047,0.451,0.797,0.756,�k��,4.2,��
2018/12/18,11:40,0.775,1.161,-,1.477,1.050,0.451,0.794,0.756,�k�k��,4.1,��
2018/12/18,11:50,0.776,1.159,0.811,1.475,1.047,0.451,0.795,0.756,�k,4.1,��
2018/12/18,12:00,0.777,1.163,0.813,1.476,1.048,0.451,0.795,0.756,�k,3.6,��
2018/12/18,12:10,0.777,1.164,0.812,1.480,1.049,0.450,0.798,0.756,�k,4.9,��
2018/12/18,12:20,0.778,1.164,0.815,1.475,1.048,0.451,0.795,0.756,�k,4.3,��
2018/12/18,12:30,0.777,1.161,0.813,1.478,1.047,0.450,0.797,0.757,�k��,3.5,��
2018/12/18,12:40,0.778,1.161,0.814,1.479,1.050,0.450,0.798,0.758,�k��,4.2,��
2018/12/18,12:50,0.777,1.159,0.813,1.478,1.048,0.451,0.798,0.756,�k�k��,4.0,��
2018/12/18,13:00,0.777,1.161,0.814,1.477,1.048,0.451,0.798,0.757,�k��,3.9,��
2018/12/18,13:10,0.777,1.160,0.811,1.478,1.049,0.451,0.798,0.754,�k��,6.7,��
2018/12/18,13:20,0.777,1.158,0.812,1.478,1.050,0.452,0.799,0.754,���k��,5.4,��
2018/12/18,13:30,0.779,1.156,0.811,1.477,1.051,0.452,0.797,0.753,��,7.2,��
2018/12/18,13:40,0.777,1.155,0.811,1.477,1.047,0.452,0.799,0.753,�k��,5.4,��
2018/12/18,13:50,0.774,1.156,-,1.476,1.049,0.453,0.797,0.756,���k��,3.9,��
2018/12/18,14:00,0.778,1.159,-,1.478,1.050,0.452,0.798,0.754,���쐼,5.8,��
2018/12/18,14:10,0.776,1.156,-,1.476,1.048,0.449,0.798,0.754,��,8.2,��
2018/12/18,14:20,0.775,1.159,-,1.481,1.050,0.452,0.798,0.755,���쐼,6.6,��
2018/12/18,14:30,0.775,1.156,-,1.478,1.050,0.451,0.800,0.755,���쐼,7.9,��
2018/12/18,14:40,0.776,1.159,-,1.479,1.050,0.451,0.796,0.755,��,7.9,��
2018/12/18,14:50,0.778,1.159,-,1.477,1.049,0.450,0.796,0.758,���k��,6.4,��
2018/12/18,15:00,0.778,1.160,-,1.479,1.050,0.452,0.799,0.757,�k��,6.3,��
2018/12/18,15:10,0.777,1.157,-,1.479,1.049,0.451,0.797,0.755,�k��,4.3,��
2018/12/18,15:20,0.777,1.160,-,1.479,1.052,0.452,0.798,0.756,�k��,4.6,��
2018/12/18,15:30,0.778,1.160,-,1.479,1.048,0.451,0.798,0.755,�k��,3.5,��
2018/12/18,15:40,0.779,1.162,0.812,1.480,1.050,0.453,0.798,0.756,�k��,3.3,��
2018/12/18,15:50,0.779,1.168,0.812,1.467,1.050,0.452,0.799,0.756,�k��,2.6,��
2018/12/18,16:00,0.777,1.167,0.811,1.481,1.049,0.453,0.798,0.757,�k��,2.5,��
2018/12/18,16:10,0.779,1.166,0.810,1.478,1.049,0.453,0.798,0.756,���k��,1.5,��
2018/12/18,16:20,0.778,1.167,0.812,1.479,1.051,0.452,0.797,0.756,���k��,0.6,��
2018/12/18,16:30,0.776,1.165,0.811,1.479,1.047,0.451,0.798,0.755,��,0.8,��
2018/12/18,16:40,0.778,1.164,0.813,1.479,1.047,0.452,0.798,0.757,-,CALM,��
2018/12/18,16:50,0.776,1.167,0.813,1.479,1.049,0.451,0.795,0.755,-,CALM,��
2018/12/18,17:00,0.778,1.164,0.814,1.476,1.048,0.452,0.796,0.755,�쓌,1.2,��
2018/12/18,17:10,0.776,1.167,0.813,1.477,1.047,0.452,0.796,0.754,��,0.6,��
2018/12/18,17:20,0.776,1.168,0.811,1.479,1.048,0.453,0.798,0.757,���쓌,1.9,��
2018/12/18,17:30,0.775,1.165,0.812,1.477,1.049,0.451,0.796,0.755,��쓌,1.1,��
2018/12/18,17:40,0.777,1.164,0.813,1.476,1.049,0.452,0.794,0.755,��쐼,2.3,��
2018/12/18,17:50,0.777,1.167,0.812,1.477,1.048,0.450,0.796,0.755,�쐼,3.8,��
2018/12/18,18:00,0.775,1.164,0.812,1.479,1.048,0.451,0.797,0.755,�쐼,4.7,��
2018/12/18,18:10,0.776,1.166,0.815,1.479,1.047,0.452,0.797,0.755,���쐼,4.6,��
2018/12/18,18:20,0.779,1.163,0.813,1.477,1.048,0.452,0.797,0.755,���쐼,3.4,��
2018/12/18,18:30,0.776,1.164,0.813,1.476,1.050,0.452,0.798,0.756,��쐼,3.3,��
2018/12/18,18:40,0.776,1.167,0.812,1.478,1.050,0.450,0.795,0.755,��쐼,3.6,��
2018/12/18,18:50,0.777,1.168,0.813,1.478,1.050,0.451,0.797,0.755,���쐼,3.2,��
2018/12/18,19:00,0.777,1.165,0.811,1.480,1.049,0.452,0.797,0.755,��,4.2,��
2018/12/18,19:10,0.778,1.167,0.812,1.477,1.048,0.451,0.796,0.755,��,5.5,��
2018/12/18,19:20,0.776,1.166,0.813,1.479,1.047,0.452,0.796,0.756,���k��,7.2,��
2018/12/18,19:30,0.778,1.169,0.813,1.478,1.049,0.453,0.798,0.756,��,8.0,�L
2018/12/18,19:40,0.776,1.167,0.813,1.479,1.050,0.451,0.798,0.755,��,8.2,�L
2018/12/18,19:50,0.778,1.166,0.810,1.480,1.049,0.451,0.797,0.754,��,7.1,��
2018/12/18,20:00,0.777,1.165,0.810,1.476,1.050,0.452,0.798,0.756,��,9.9,��
2018/12/18,20:10,0.776,1.166,0.810,1.478,1.050,0.450,0.798,0.756,��,9.8,�L
2018/12/18,20:20,0.777,1.167,0.810,1.483,1.051,0.450,0.799,0.755,��,9.4,�L
2018/12/18,20:30,0.777,1.165,0.809,1.478,1.051,0.451,0.797,0.755,��,10.5,�L
2018/12/18,20:40,0.778,1.165,0.810,1.483,1.048,0.451,0.796,0.754,��,10.0,�L
2018/12/18,20:50,0.778,1.169,0.810,1.479,1.051,0.452,0.799,0.756,��,10.5,�L
2018/12/18,21:00,0.777,1.168,0.811,1.481,1.051,0.454,0.798,0.756,�쐼,10.5,�L
2018/12/18,21:10,0.777,1.168,0.812,1.482,1.051,0.453,0.798,0.755,���쐼,8.1,�L
2018/12/18,21:20,0.778,1.165,0.813,1.482,1.050,0.454,0.797,0.754,���쐼,5.8,��
2018/12/18,21:30,0.778,1.165,0.811,1.480,1.049,0.454,0.798,0.756,��,5.0,��
2018/12/18,21:40,0.777,1.166,0.811,1.480,1.049,0.453,0.797,0.756,���k��,3.6,��
2018/12/18,21:50,0.775,1.167,0.810,1.480,1.049,0.453,0.796,0.756,�k�k��,3.3,��
2018/12/18,22:00,0.778,1.165,0.812,1.480,1.048,0.453,0.796,0.755,�k�k��,4.2,��
2018/12/18,22:10,0.777,1.167,0.811,1.483,1.050,0.453,0.797,0.754,�k��,5.9,��
2018/12/18,22:20,0.776,1.167,0.814,1.480,1.048,0.452,0.795,0.757,�k�k��,5.7,��
2018/12/18,22:30,0.776,1.166,0.811,1.482,1.049,0.453,0.795,0.754,�k�k��,5.7,��
2018/12/18,22:40,0.777,1.166,0.814,1.481,1.048,0.454,0.796,0.755,�k��,6.6,��
2018/12/18,22:50,0.776,1.166,0.811,1.480,1.050,0.460,0.796,0.756,�k��,5.0,��
2018/12/18,23:00,0.775,1.166,0.813,1.480,1.049,0.452,0.795,0.756,�k��,4.5,��
2018/12/18,23:10,0.777,1.166,0.809,1.481,1.048,0.453,0.796,0.754,���k��,4.4,��
2018/12/18,23:20,0.775,1.165,0.812,1.480,1.049,0.452,0.794,0.754,���k��,5.1,��
2018/12/18,23:30,0.775,1.167,0.811,1.476,1.047,0.451,0.796,0.755,���k��,5.6,��
2018/12/18,23:40,0.774,1.163,0.813,1.480,1.047,0.452,0.795,0.755,���k��,5.5,��
2018/12/18,23:50,0.773,1.165,0.812,1.476,1.047,0.452,0.798,0.755,���k��,6.4,��
